This demonstration page uses our WeatherBlox Daily Observations layout. Learn more.

39.08367, -84.50855

Hourly Observations for June 7, 2019

Temp ( °F °C ) Dew Point ( °F °C ) Humidity (%) Winds ( mph kmh ) Pressure ( in mb ) Visibility ( mi km ) Precip ( " mm )
12:53 am 00:53 Mostly Clear 72 22.2 65 18.3 79 79 NNE 5 7 29.83 1010 10 16.09344 0 0
1:31 am 01:31 Mostly Cloudy 71 21.7 66 18.9 84 84 VRB 5 7 29.88 1012 10 16.09344 0 0
1:43 am 01:43 Mostly Cloudy 72 22.2 66 18.9 82 82 VRB 5 7 29.85 1011 10 16.09344 0 0
1:53 am 01:53 Mostly Cloudy 71 21.7 66 18.9 84 84 VRB 5 7 29.83 1010 10 16.09344 0 0
2:53 am 02:53 Clear 70 21.1 65 18.3 84 84 VRB 3 6 29.83 1010 10 16.09344 0 0
3:53 am 03:53 Clear 70 21.1 65 18.3 84 84 NE 6 9 29.83 1010 10 16.09344 0 0
4:53 am 04:53 Clear 69 20.6 65 18.3 87 87 NE 7 11 29.83 1010 10 16.09344 0 0
5:53 am 05:53 Clear 68 20 64 17.8 87 87 NE 6 9 29.83 1010 10 16.09344 0 0
6:53 am 06:53 Sunny 68 20 64 17.8 87 87 NE 6 9 29.83 1010 10 16.09344 0 0
7:53 am 07:53 Mostly Sunny 69 20.6 64 17.8 84 84 NE 8 13 29.85 1011 10 16.09344 0 0
8:53 am 08:53 Sunny 71 21.7 65 18.3 81 81 NE 8 13 29.85 1011 10 16.09344 0 0
9:53 am 09:53 Sunny 72 22.2 65 18.3 79 79 NE 8 13 29.85 1011 10 16.09344 0 0
10:53 am 10:53 Sunny 75 23.9 66 18.9 74 74 NE 14 22 29.85 1011 10 16.09344 0 0
11:53 am 11:53 Sunny 77 25 66 18.9 69 69 NE 9 15 29.85 1011 10 16.09344 0 0
12:53 pm 12:53 Sunny 76 24.4 64 17.8 67 67 ENE 9 15 29.85 1011 10 16.09344 0 0
1:53 pm 13:53 Mostly Sunny 76 24.4 64 17.8 67 67 E 9 15 29.85 1011 10 16.09344 0 0
2:53 pm 14:53 Sunny 77 25 63 17.2 62 62 ENE 9 15 29.83 1010 10 16.09344 0 0
3:53 pm 15:53 Sunny 77 25 61 16.1 58 58 NE 12 19 29.83 1010 10 16.09344 0 0
4:53 pm 16:53 Sunny 76 24.4 61 16.1 60 60 NE 12 19 29.83 1010 10 16.09344 0 0
5:53 pm 17:53 Sunny 78 25.6 62 16.7 58 58 NE 13 20 29.8 1009 10 16.09344 0 0
6:53 pm 18:53 Sunny 77 25 61 16.1 58 58 NE 15 24 29.8 1009 10 16.09344 0 0
7:53 pm 19:53 Mostly Cloudy with Light Rain 75 23.9 63 17.2 66 66 NE 8 13 29.83 1010 10 16.09344 0.001 0.001
8:53 pm 20:53 Cloudy with Light Rain 75 23.9 62 16.7 64 64 NE 13 20 29.83 1010 10 16.09344 0.001 0.001
9:53 pm 21:53 Mostly Clear 74 23.3 63 17.2 69 69 NE 12 19 29.83 1010 10 16.09344 0.001 0.001
10:53 pm 22:53 Mostly Clear 74 23.3 62 16.7 67 67 NE 10 17 29.85 1011 10 16.09344 0 0
11:53 pm 23:53 Cloudy 73 22.8 62 16.7 69 69 NE 9 15 29.85 1011 10 16.09344 0 0

Powered by AerisWeather